Simultaneous Nadir Overpasses (SNOs) Predictions

Prediction of SNOs between GOES-16 and TERRA Satellite Orbit:

Table of predicted SNOs for the next 14.0 days since TLE Epoch: 5/16/2020
Index Date Time (GOES-16) GOES-16 Lat,Lon TERRA Lat,Lon Distance(km) Time Diff (sec)
1 05/17/2020 15:30:03 0.02, -75.22 0.05, -75.27 6.64 80
2 05/19/2020 15:20:32 0.02, -75.24 -0.61, -72.32 331.87 80
3 05/20/2020 03:41:56 -0.02, -75.22 -0.51, -77.51 261.04 80
4 05/22/2020 03:27:05 -0.02, -75.24 0.14, -74.56 77.69 80
5 05/24/2020 03:14:54 -0.01, -75.26 0.80, -71.61 416.51 80
6 05/24/2020 15:36:08 0.01, -75.30 0.33, -76.76 166.05 80
7 05/26/2020 15:26:38 0.00, -75.32 -0.33, -73.80 172.98 80
8 05/27/2020 03:48:01 0.00, -75.31 -0.79, -78.99 419.49 80
9 05/29/2020 03:35:50 0.01, -75.34 -0.13, -76.04 79.94 80




NCC Satellite Simultaneous Nadir Overpasses (SNOs) Prediction Service
